Location: Unspecified
(41.1637°N, 24.2901°E)
Time: 14:13:41
(UTC+01:00)

ARIANE 6 FM1 Upper Stage - Pass Details

Date: 25 January 2026
Orbit: 522 x 609 km, 62.0° (Epoch: 11 February)

Event Time Altitude Azimuth Distance (km) Brightness Sun altitude
Rises 18:33:33 0° 256° (WSW) 2,704 7.6 -23.1°
Reaches altitude 10° 18:36:20 10° 276° (W) 1,799 6.3 -23.6°
Maximum altitude 18:39:11 18° 321° (NW) 1,343 4.9 -24.1°
Enters shadow 18:40:44 15° 349° (N) 1,486 4.9 -24.4°
